When you browse on this site, cookies collect data to enhance your experience and personalize the content and advertising you see.
Visit our Privacy Policy to learn more. By continuing to use the site, you agree to this use of cookies and data.
  • In France
  • List of Countries
  • For 7 days
  • Water Temperature
  • Weather Map
  • Weather Widgets
  • user-avatar
    Login

    Hourly Weather Kacperkow

    Today, 26 January, Sunday

    Time Temperature Precipitation Wind Pressure Humidity
    00:00 -1°C° 0 mm 2 mps 749 mmHg 75%
    01:00 -1°C° 0 mm 2 mps 749 mmHg 74%
    02:00 -1°C° 0 mm 2 mps 749 mmHg 74%
    03:00 -1°C° 0 mm 2 mps 749 mmHg 75%
    04:00 -2°C° 0 mm 2 mps 749 mmHg 75%
    05:00 0°C° 0 mm 1 mps 749 mmHg 74%
    06:00 +1°C° 0 mm 1 mps 749 mmHg 73%
    07:00 +1°C° 0 mm 1 mps 748 mmHg 72%
    08:00 -1°C° 0 mm 2 mps 749 mmHg 68%
    09:00 +1°C° 0 mm 2 mps 749 mmHg 64%
    10:00 +1°C° 0 mm 2 mps 749 mmHg 61%
    11:00 +2°C° 0 mm 2 mps 748 mmHg 60%
    12:00 +2°C° 0 mm 2 mps 748 mmHg 59%
    13:00 +3°C° 0 mm 2 mps 747 mmHg 57%
    14:00 +2°C° 0 mm 2 mps 747 mmHg 60%
    15:00 +2°C° 0 mm 2 mps 747 mmHg 63%
    16:00 +1°C° 0 mm 2 mps 747 mmHg 67%
    17:00 +1°C° 0 mm 2 mps 747 mmHg 68%
    18:00 +1°C° 0 mm 2 mps 747 mmHg 69%
    19:00 -1°C° 0 mm 2 mps 746 mmHg 71%
    20:00 -1°C° 0 mm 2 mps 746 mmHg 72%
    21:00 -1°C° 0 mm 2 mps 746 mmHg 73%
    22:00 -1°C° 0 mm 2 mps 746 mmHg 73%
    23:00 -1°C° 0 mm 2 mps 746 mmHg 75%

    Tomorrow, 27 January, Monday

    Time Temperature Precipitation Wind Pressure Humidity
    00:00 -1°C° 0 mm 2 mps 746 mmHg 76%
    01:00 -1°C° 0 mm 2 mps 746 mmHg 77%
    02:00 -1°C° 0 mm 2 mps 746 mmHg 78%
    03:00 -1°C° 0 mm 2 mps 745 mmHg 79%
    04:00 -1°C° 0 mm 2 mps 745 mmHg 79%
    05:00 -1°C° 0 mm 2 mps 745 mmHg 80%
    06:00 -1°C° 0 mm 2 mps 745 mmHg 80%
    07:00 -1°C° 0 mm 2 mps 745 mmHg 81%
    08:00 +1°C° 0 mm 2 mps 745 mmHg 78%
    09:00 0°C° 0 mm 3 mps 745 mmHg 74%
    10:00 +1°C° 0 mm 3 mps 745 mmHg 71%
    11:00 +2°C° 0 mm 3 mps 745 mmHg 69%
    12:00 +3°C° 0 mm 3 mps 744 mmHg 67%
    13:00 +3°C° 0 mm 3 mps 744 mmHg 65%
    14:00 +4°C° 0 mm 2 mps 744 mmHg 69%
    15:00 +3°C° 0 mm 2 mps 743 mmHg 73%
    16:00 +2°C° 0 mm 2 mps 743 mmHg 77%
    17:00 +2°C° 0 mm 2 mps 743 mmHg 80%
    18:00 +1°C° 0 mm 2 mps 743 mmHg 82%
    19:00 0°C° 0 mm 3 mps 743 mmHg 85%
    20:00 0°C° 0 mm 3 mps 742 mmHg 86%
    21:00 0°C° 0 mm 3 mps 742 mmHg 87%
    22:00 0°C° 0 mm 3 mps 742 mmHg 88%
    23:00 -1°C° 0 mm 3 mps 741 mmHg 89%

    Day after tomorrow, 28 January, Tuesday

    Time Temperature Precipitation Wind Pressure Humidity
    00:00 -1°C° 0 mm 3 mps 741 mmHg 90%
    01:00 -1°C° 0 mm 3 mps 740 mmHg 90%
    02:00 -1°C° 0 mm 3 mps 740 mmHg 90%
    03:00 0°C° 0 mm 3 mps 739 mmHg 90%
    04:00 0°C° 0 mm 3 mps 739 mmHg 90%
    05:00 0°C° 0 mm 3 mps 738 mmHg 88%
    06:00 0°C° 0 mm 3 mps 738 mmHg 87%
    07:00 -1°C° 0 mm 4 mps 737 mmHg 85%
    08:00 0°C° 0 mm 4 mps 737 mmHg 81%
    09:00 +1°C° 0 mm 4 mps 736 mmHg 77%
    10:00 +1°C° 0 mm 4 mps 736 mmHg 73%
    11:00 +3°C° 0 mm 4 mps 735 mmHg 72%
    12:00 +3°C° 0 mm 3 mps 734 mmHg 71%
    13:00 +3°C° 0 mm 3 mps 734 mmHg 70%
    14:00 +3°C° 0.1 mm 3 mps 733 mmHg 74%
    15:00 +3°C° 0.1 mm 3 mps 733 mmHg 79%
    16:00 +2°C° 0.1 mm 3 mps 732 mmHg 83%
    17:00 +2°C° 0.3 mm 3 mps 732 mmHg 87%
    18:00 +2°C° 0.3 mm 3 mps 732 mmHg 91%
    19:00 +3°C° 0.3 mm 2 mps 731 mmHg 95%
    20:00 +2°C° 0.2 mm 3 mps 731 mmHg 95%
    21:00 +2°C° 0.2 mm 3 mps 731 mmHg 96%
    22:00 +2°C° 0.2 mm 3 mps 731 mmHg 96%
    23:00 +1°C° 0.2 mm 4 mps 731 mmHg 96%

    29 January, Wednesday

    Time Temperature Precipitation Wind Pressure Humidity
    00:00 +1°C° 0.2 mm 4 mps 730 mmHg 95%
    01:00 +1°C° 0.2 mm 5 mps 730 mmHg 95%
    02:00 0°C° 0.3 mm 5 mps 730 mmHg 94%
    03:00 0°C° 0.3 mm 5 mps 730 mmHg 94%
    04:00 -1°C° 0.3 mm 6 mps 730 mmHg 93%
    05:00 0°C° 0.1 mm 5 mps 730 mmHg 86%
    06:00 0°C° 0.1 mm 5 mps 730 mmHg 79%
    07:00 0°C° 0.1 mm 5 mps 731 mmHg 73%
    08:00 0°C° 0 mm 5 mps 731 mmHg 71%
    09:00 -1°C° 0 mm 6 mps 731 mmHg 70%
    10:00 -1°C° 0 mm 6 mps 731 mmHg 69%
    11:00 -1°C° 0 mm 6 mps 731 mmHg 68%
    12:00 0°C° 0 mm 7 mps 731 mmHg 67%
    13:00 0°C° 0 mm 7 mps 732 mmHg 67%
    14:00 +1°C° 0 mm 6 mps 732 mmHg 68%
    15:00 +1°C° 0 mm 5 mps 732 mmHg 69%
    16:00 +1°C° 0 mm 5 mps 733 mmHg 70%
    17:00 0°C° 0 mm 5 mps 733 mmHg 74%
    18:00 0°C° 0 mm 5 mps 733 mmHg 78%
    19:00 -1°C° 0 mm 6 mps 733 mmHg 82%
    20:00 -2°C° 0.1 mm 6 mps 733 mmHg 86%
    21:00 -2°C° 0.1 mm 6 mps 733 mmHg 91%
    22:00 -2°C° 0.1 mm 6 mps 733 mmHg 96%
    23:00 -2°C° 0.8 mm 6 mps 733 mmHg 94%

    30 January, Thursday

    Time Temperature Precipitation Wind Pressure Humidity
    00:00 -2°C° 0.8 mm 7 mps 734 mmHg 93%
    01:00 -1°C° 0.8 mm 7 mps 734 mmHg 91%
    02:00 -1°C° 0 mm 7 mps 734 mmHg 91%
    03:00 -1°C° 0 mm 8 mps 735 mmHg 91%
    04:00 -2°C° 0 mm 8 mps 735 mmHg 91%
    05:00 -2°C° 0 mm 8 mps 736 mmHg 91%
    06:00 -2°C° 0 mm 8 mps 736 mmHg 91%
    07:00 -2°C° 0 mm 8 mps 737 mmHg 92%
    08:00 -2°C° 0 mm 8 mps 737 mmHg 89%
    09:00 -2°C° 0 mm 8 mps 738 mmHg 87%
    10:00 -1°C° 0 mm 8 mps 738 mmHg 84%
    11:00 -1°C° 0 mm 8 mps 739 mmHg 82%
    12:00 -1°C° 0 mm 8 mps 739 mmHg 80%
    13:00 0°C° 0 mm 8 mps 739 mmHg 78%
    14:00 0°C° 0.1 mm 8 mps 739 mmHg 80%
    15:00 0°C° 0.1 mm 7 mps 740 mmHg 82%
    16:00 -1°C° 0.1 mm 7 mps 740 mmHg 84%
    17:00 -1°C° 0 mm 7 mps 740 mmHg 84%
    18:00 -1°C° 0 mm 7 mps 741 mmHg 83%
    19:00 -1°C° 0 mm 7 mps 741 mmHg 83%
    20:00 -1°C° 0 mm 6 mps 742 mmHg 82%
    21:00 -1°C° 0 mm 6 mps 742 mmHg 82%
    22:00 0°C° 0 mm 5 mps 742 mmHg 82%
    23:00 -1°C° 0 mm 6 mps 742 mmHg 84%

    31 January, Friday

    Time Temperature Precipitation Wind Pressure Humidity
    00:00 -1°C° 0 mm 6 mps 743 mmHg 86%
    01:00 -1°C° 0 mm 6 mps 743 mmHg 88%
    02:00 -1°C° 0 mm 6 mps 743 mmHg 89%
    03:00 -1°C° 0 mm 6 mps 743 mmHg 90%
    04:00 0°C° 0 mm 5 mps 743 mmHg 91%
    05:00 0°C° 0.2 mm 5 mps 743 mmHg 92%
    06:00 -1°C° 0.2 mm 6 mps 743 mmHg 93%
    07:00 -1°C° 0.2 mm 6 mps 744 mmHg 94%
    08:00 0°C° 0 mm 5 mps 744 mmHg 91%
    09:00 0°C° 0 mm 5 mps 744 mmHg 88%
    10:00 0°C° 0 mm 5 mps 744 mmHg 84%
    11:00 +1°C° 0 mm 5 mps 744 mmHg 79%
    12:00 +1°C° 0 mm 5 mps 744 mmHg 75%
    13:00 +2°C° 0 mm 5 mps 744 mmHg 70%
    14:00 +3°C° 0 mm 4 mps 744 mmHg 70%
    15:00 +3°C° 0 mm 3 mps 744 mmHg 70%
    16:00 +3°C° 0 mm 2 mps 744 mmHg 70%
    17:00 +3°C° 0 mm 2 mps 744 mmHg 71%
    18:00 +2°C° 0 mm 2 mps 744 mmHg 73%
    19:00 +2°C° 0 mm 2 mps 744 mmHg 74%
    20:00 +2°C° 0 mm 2 mps 744 mmHg 76%
    21:00 +1°C° 0 mm 2 mps 744 mmHg 77%
    22:00 +1°C° 0 mm 2 mps 744 mmHg 78%
    23:00 +1°C° 0 mm 2 mps 744 mmHg 77%
    Show more